FW8739 Weather Reports


time (UTC)temp
C
wind
direction
speed
KPH
gust
KPH
rain 1hr
cm
rain 24hr
cm
rain mn
cm
humidity
%
barometer
mb
20260906150525 33 183 0.0 0.0 0.00 0.00 0.00 72 1017.1
20260906150020 32 183 0.0 0.0 0.00 0.00 0.00 75 1017.1
20260906145519 31 175 0.0 0.0 0.00 0.00 0.00 76 1016.9
20260906145014 31 179 0.0 0.0 0.00 0.00 0.00 79 1017.1
20260906144508 31 185 0.0 0.0 0.00 0.00 0.00 79 1017.0
20260906144004 30 178 0.0 0.0 0.00 0.00 0.00 81 1017.1
20260906143459 29 181 0.0 0.0 0.00 0.00 0.00 86 1017.0
20260906142955 28 183 0.0 0.0 0.00 0.00 0.00 88 1017.1
20260906142449 26 170 0.0 0.0 0.00 0.00 0.00 93 1017.2
20260906141944 25 180 0.0 0.0 0.00 0.00 0.00 97 1017.0
20260906141443 24 179 0.0 0.0 0.00 0.00 0.00 99 1016.9
20260906140938 23 182 0.0 0.0 0.00 0.00 0.00 99 1016.8
20260906140432 23 180 0.0 0.0 0.00 0.00 0.00 99 1017.0
20260906135925 23 185 0.0 0.0 0.00 0.00 0.00 99 1017.0
20260906135424 23 185 0.0 0.0 0.00 0.00 0.00 99 1016.9
20260906134920 22 187 0.0 0.0 0.00 0.00 0.00 99 1017.0
20260906134415 22 184 0.0 0.0 0.00 0.00 0.00 99 1017.0
20260906133910 22 184 0.0 0.0 0.00 0.00 0.00 99 1016.9
20260906133406 22 183 0.0 0.0 0.00 0.00 0.00 99 1016.8
20260906132901 22 184 0.0 0.0 0.00 0.00 0.00 99 1017.0
20260906132356 22 186 0.0 0.0 0.00 0.00 0.00 99 1016.9
20260906131852 21 184 0.0 0.0 0.00 0.00 0.00 99 1016.9
20260906131347 21 184 0.0 0.0 0.00 0.00 0.00 99 1016.9
20260906130843 21 184 0.0 0.0 0.00 0.00 0.00 99 1016.8
20260906130342 21 184 0.0 0.0 0.00 0.00 0.00 99 1016.8
20260906125841 21 184 0.0 0.0 0.00 0.00 0.00 99 1016.6
20260906125338 21 184 0.0 0.0 0.00 0.00 0.00 99 1016.7
20260906124833 21 184 0.0 0.0 0.00 0.00 0.00 99 1016.6
20260906124329 20 184 0.0 0.0 0.00 0.00 0.00 99 1016.7
20260906123829 20 184 0.0 0.0 0.00 0.00 0.00 99 1016.3
20260906123324 20 184 0.0 0.0 0.00 0.00 0.00 99 1016.5
20260906122823 20 184 0.0 0.0 0.00 0.00 0.00 99 1016.5
20260906122318 20 184 0.0 0.0 0.00 0.00 0.00 99 1016.5
20260906121815 20 184 0.0 0.0 0.00 0.00 0.00 99 1016.4
20260906121311 20 185 0.0 0.0 0.00 0.00 0.00 99 1016.3
20260906120807 20 185 0.0 0.0 0.00 0.00 0.00 99 1016.4
20260906120303 20 180 0.0 0.0 0.00 0.00 0.00 99 1016.5
20260906115758 20 183 0.0 0.0 0.00 0.00 0.00 99 1016.1
20260906115254 20 183 0.0 0.0 0.00 0.00 0.00 99 1016.2
20260906114753 20 183 0.0 0.0 0.00 0.00 0.00 99 1016.0
20260906114248 20 183 0.0 0.0 0.00 0.00 0.00 99 1016.0
20260906113744 20 183 0.0 0.0 0.00 0.00 0.00 99 1015.9
20260906113243 20 183 0.0 0.0 0.00 0.00 0.00 99 1016.1
20260906112743 20 183 0.0 0.0 0.00 0.00 0.00 99 1016.2
20260906112239 20 183 0.0 0.0 0.00 0.00 0.00 99 1016.2
20260906111739 20 183 0.0 0.0 0.00 0.00 0.00 99 1016.1
20260906111233 20 183 0.0 0.0 0.00 0.00 0.00 99 1016.0
20260906110728 20 183 0.0 0.0 0.00 0.00 0.00 99 1016.2
20260906110224 20 183 0.0 0.0 0.00 0.00 0.00 99 1016.0
20260906105723 20 183 0.0 0.0 0.00 0.00 0.00 99 1016.1
20260906105219 20 183 0.0 0.0 0.00 0.00 0.00 99 1015.9
20260906104719 20 183 0.0 0.0 0.00 0.00 0.00 99 1016.0
20260906104218 20 183 0.0 0.0 0.00 0.00 0.00 99 1015.9
20260906103716 20 183 0.0 0.0 0.00 0.00 0.00 99 1015.9
20260906103211 20 183 0.0 0.0 0.00 0.00 0.00 99 1016.0
20260906102706 20 183 0.0 0.0 0.00 0.00 0.00 99 1015.8
20260906102205 20 183 0.0 0.0 0.00 0.00 0.00 99 1015.7
20260906101700 20 183 0.0 0.0 0.00 0.00 0.00 99 1015.5
20260906101155 20 183 0.0 0.0 0.00 0.00 0.00 99 1015.4
20260906100651 20 183 0.0 0.0 0.00 0.00 0.00 99 1015.6
20260906100151 20 183 0.0 0.0 0.00 0.00 0.00 99 1015.4
20260906095646 20 182 0.0 0.0 0.00 0.00 0.00 99 1015.5
20260906095141 21 179 0.0 0.0 0.00 0.00 0.00 99 1015.5
20260906094640 20 186 0.0 0.0 0.00 0.00 0.00 99 1015.5
20260906094136 20 183 0.0 0.0 0.00 0.00 0.00 99 1015.4
20260906093632 21 183 0.0 0.0 0.00 0.00 0.00 99 1015.3
20260906093132 21 183 0.0 0.0 0.00 0.00 0.00 99 1015.5
20260906092627 21 183 0.0 0.0 0.00 0.00 0.00 99 1015.3
20260906092122 21 186 0.0 0.0 0.00 0.00 0.00 99 1015.4
20260906091618 21 186 0.0 0.0 0.00 0.00 0.00 99 1015.1
20260906091114 21 184 0.0 0.0 0.00 0.00 0.00 99 1015.3
20260906090615 21 184 0.0 0.0 0.00 0.00 0.00 99 1015.5
20260906090114 21 184 0.0 0.0 0.00 0.00 0.00 99 1015.5
20260906085614 21 184 0.0 0.0 0.00 0.00 0.00 99 1015.3
20260906085108 21 184 0.0 0.0 0.00 0.00 0.00 99 1015.2
20260906084603 21 180 0.0 0.0 0.00 0.00 0.00 99 1015.2
20260906084102 21 180 0.0 0.0 0.00 0.00 0.00 99 1015.3
20260906083557 21 179 0.0 0.0 0.00 0.00 0.00 99 1015.3
20260906083057 21 183 0.0 0.0 0.00 0.00 0.00 99 1015.1
20260906082553 21 183 0.0 0.0 0.00 0.00 0.00 99 1015.3
20260906082048 21 183 0.0 0.0 0.00 0.00 0.00 99 1015.2
20260906081544 21 184 0.0 0.0 0.00 0.00 0.00 99 1015.1
20260906081039 21 184 0.0 0.0 0.00 0.00 0.00 99 1015.1
20260906080536 21 184 0.0 0.0 0.00 0.00 0.00 99 1015.0
20260906080031 21 185 0.0 0.0 0.00 0.00 0.00 99 1015.0
20260906075525 21 184 0.0 0.0 0.00 0.00 0.00 99 1015.2
20260906075020 21 184 0.0 0.0 0.00 0.00 0.00 99 1015.0
20260906074515 21 186 0.0 0.0 0.00 0.00 0.00 99 1015.0
20260906074013 21 180 0.0 0.0 0.00 0.00 0.00 99 1015.0
20260906073508 21 180 0.0 0.0 0.00 0.00 0.00 99 1015.1
20260906073005 21 180 0.0 0.0 0.00 0.00 0.00 99 1015.2
20260906072459 21 180 0.0 0.0 0.00 0.00 0.00 99 1015.1
20260906071955 21 180 0.0 0.0 0.00 0.00 0.00 99 1015.3
20260906071451 21 180 0.0 0.0 0.00 0.00 0.00 99 1015.4
20260906070946 21 179 0.0 0.0 0.00 0.00 0.00 99 1015.3
20260906070443 21 184 0.0 0.0 0.00 0.00 0.00 99 1015.2
20260906065938 21 184 0.0 0.0 0.00 0.00 0.00 99 1015.3
20260906065438 21 184 0.0 0.0 0.00 0.00 0.00 99 1015.4
20260906064933 21 184 0.0 0.0 0.00 0.00 0.00 99 1015.4
20260906064429 21 184 0.0 0.0 0.00 0.00 0.00 99 1015.6
20260906063924 21 184 0.0 0.0 0.00 0.00 0.00 99 1015.4
20260906063419 22 184 0.0 0.0 0.00 0.00 0.00 99 1015.4
20260906062914 22 184 0.0 0.0 0.00 0.00 0.00 99 1015.4
20260906062409 22 185 0.0 0.0 0.00 0.00 0.00 99 1015.6
20260906061904 22 185 0.0 0.0 0.00 0.00 0.00 99 1015.7
20260906061400 22 183 0.0 0.0 0.00 0.00 0.00 99 1015.6
20260906060854 22 183 0.0 0.0 0.00 0.00 0.00 99 1015.5
20260906060352 22 183 0.0 0.0 0.00 0.00 0.00 99 1015.4
20260906055848 22 183 0.0 0.0 0.00 0.00 0.00 99 1015.7
20260906055343 22 180 0.0 0.0 0.00 0.00 0.00 99 1015.5
20260906054838 22 180 0.0 0.0 0.00 0.00 0.00 99 1015.6
20260906054333 22 180 0.0 0.0 0.00 0.00 0.00 99 1015.5
20260906053830 22 180 0.0 0.0 0.00 0.00 0.00 99 1015.5
20260906053325 22 180 0.0 0.0 0.00 0.00 0.00 99 1015.4
20260906052820 22 180 0.0 0.0 0.00 0.00 0.00 99 1015.2
20260906052317 22 180 0.0 0.0 0.00 0.00 0.00 99 1015.4
20260906051814 22 180 0.0 0.0 0.00 0.00 0.00 99 1015.4
20260906051313 22 180 0.0 0.0 0.00 0.00 0.00 99 1015.5
20260906050808 22 180 0.0 0.0 0.00 0.00 0.00 99 1015.3
20260906050303 22 180 0.0 0.0 0.00 0.00 0.00 99 1015.3
20260906045802 22 180 0.0 0.0 0.00 0.00 0.00 99 1015.2
20260906045257 22 180 0.0 0.0 0.00 0.00 0.00 99 1015.5
20260906044753 22 180 0.0 0.0 0.00 0.00 0.00 99 1015.5
20260906044248 22 180 0.0 0.0 0.00 0.00 0.00 99 1015.1
20260906043744 22 180 0.0 0.0 0.00 0.00 0.00 99 1015.4
20260906043240 22 180 0.0 0.0 0.00 0.00 0.00 99 1015.5
20260906042739 22 180 0.0 0.0 0.00 0.00 0.00 99 1015.4
20260906042238 22 180 0.0 0.0 0.00 0.00 0.00 99 1015.2
20260906041734 22 180 0.0 0.0 0.00 0.00 0.00 99 1015.3
20260906041229 22 180 0.0 0.0 0.00 0.00 0.00 99 1015.4
20260906040725 22 180 0.0 0.0 0.00 0.00 0.00 99 1015.3
20260906040220 22 180 0.0 0.0 0.00 0.00 0.00 99 1015.2
20260906035715 22 180 0.0 0.0 0.00 0.00 0.00 99 1015.5
20260906035211 22 180 0.0 0.0 0.00 0.00 0.00 99 1015.5
20260906034710 22 180 0.0 0.0 0.00 0.00 0.00 99 1015.6
20260906034205 23 180 0.0 0.0 0.00 0.00 0.00 99 1015.3
20260906033701 23 180 0.0 0.0 0.00 0.00 0.00 99 1015.4
20260906033201 23 180 0.0 0.0 0.00 0.00 0.00 99 1015.5
20260906032657 23 183 0.0 0.0 0.00 0.00 0.00 99 1015.4
20260906032152 23 184 0.0 0.0 0.00 0.00 0.00 99 1015.2
20260906031647 23 184 0.0 0.0 0.00 0.00 0.00 99 1015.4
20260906031143 23 184 0.0 0.0 0.00 0.00 0.00 99 1015.2
20260906030642 23 185 0.0 0.0 0.00 0.00 0.00 99 1015.0
20260906030138 23 182 0.0 0.0 0.00 0.00 0.00 99 1015.0
20260906025637 23 182 0.0 0.0 0.00 0.00 0.00 99 1015.1
20260906025136 23 184 0.0 0.0 0.00 0.00 0.00 99 1015.0
20260906024631 23 184 0.0 0.0 0.00 0.00 0.00 99 1015.1
20260906024125 23 179 0.0 0.0 0.00 0.00 0.00 99 1015.2
20260906023621 23 185 0.0 0.0 0.00 0.00 0.00 99 1015.1
20260906023121 23 183 0.0 0.0 0.00 0.00 0.00 99 1015.1
20260906022616 23 183 0.0 0.0 0.00 0.00 0.00 99 1015.0
20260906022112 23 183 0.0 0.0 0.00 0.00 0.00 99 1014.8
20260906021608 23 180 0.0 0.0 0.00 0.00 0.00 99 1014.7
20260906021106 23 180 0.0 0.0 0.00 0.00 0.00 99 1014.7
20260906020605 24 182 0.0 0.0 0.00 0.00 0.00 99 1014.8
20260906020100 24 182 0.0 0.0 0.00 0.00 0.00 99 1014.5
20260906015554 24 181 0.0 0.0 0.00 0.00 0.00 99 1014.4
20260906015053 24 183 0.0 0.0 0.00 0.00 0.00 99 1014.3
20260906014548 24 183 0.0 0.0 0.00 0.00 0.00 99 1014.1
20260906014044 24 180 0.0 0.0 0.00 0.00 0.00 98 1014.1
20260906013539 25 180 0.0 0.0 0.00 0.00 0.00 98 1013.9
20260906013035 25 180 0.0 0.0 0.00 0.00 0.00 97 1014.0
20260906012530 25 181 0.0 0.0 0.00 0.00 0.00 97 1014.1
20260906012029 25 184 0.0 0.0 0.00 0.00 0.00 98 1013.9
20260906011525 25 174 0.0 0.0 0.00 0.00 0.00 97 1013.9
20260906011025 25 183 0.0 0.0 0.00 0.00 0.00 97 1013.8
20260906010520 25 182 0.0 0.0 0.00 0.00 0.00 96 1013.8
20260906010017 25 186 0.0 0.0 0.00 0.00 0.00 96 1013.8
20260906005516 25 182 0.0 0.0 0.00 0.00 0.00 95 1013.7
20260906005015 25 182 0.0 0.0 0.00 0.00 0.00 95 1013.5
20260906004509 26 179 0.0 0.0 0.00 0.00 0.00 94 1013.8
20260906004004 26 184 0.0 0.0 0.00 0.00 0.00 93 1013.4
20260906003459 26 184 0.0 0.0 0.00 0.00 0.00 93 1013.2
20260906002954 26 184 0.0 0.0 0.00 0.00 0.00 92 1013.4
20260906002449 26 184 0.0 0.0 0.00 0.00 0.00 91 1013.4
20260906001944 26 184 0.0 0.0 0.00 0.00 0.00 91 1013.3
20260906001440 27 184 0.0 0.0 0.00 0.00 0.00 90 1013.5
20260906000934 27 185 0.0 0.0 0.00 0.00 0.00 89 1013.8
20260906000433 27 184 0.0 0.0 0.00 0.00 0.00 87 1013.5
20260905235925 28 184 0.0 0.0 0.00 0.00 0.00 85 1013.7
20260905235424 28 185 0.0 0.0 0.00 0.00 0.00 84 1013.5
20260905234919 28 184 0.0 0.0 0.00 0.00 0.00 82 1013.8
20260905234415 28 184 0.0 0.0 0.00 0.00 0.00 80 1013.8
20260905233909 29 184 0.0 0.0 0.00 0.00 0.00 78 1013.7
20260905233405 30 184 0.0 0.0 0.00 0.00 0.00 77 1013.8
20260905232903 30 186 0.0 0.0 0.00 0.00 0.00 76 1013.9
20260905232400 30 185 0.0 0.0 0.00 0.00 0.00 75 1013.9
20260905231855 30 185 0.0 0.0 0.00 0.00 0.00 75 1013.8
20260905231350 30 184 0.0 0.0 0.00 0.00 0.00 76 1013.8
20260905230847 30 185 0.0 0.0 0.00 0.00 0.00 78 1013.7
20260905230344 30 187 0.0 0.0 0.00 0.00 0.00 77 1013.7
20260905225844 30 182 0.0 0.0 0.00 0.00 0.00 78 1013.5
20260905225339 30 182 0.0 0.0 0.00 0.00 0.00 78 1013.8
20260905224834 30 181 0.0 0.0 0.00 0.00 0.00 76 1013.5
20260905224329 31 185 0.0 0.0 0.00 0.00 0.00 73 1013.6
20260905223824 31 189 0.0 0.0 0.00 0.00 0.00 72 1013.6
20260905223322 32 192 0.0 1.6 0.00 0.00 0.00 69 1013.5
20260905222817 32 188 0.0 0.0 0.00 0.00 0.00 67 1013.7
20260905222316 32 183 0.0 0.0 0.00 0.00 0.00 70 1013.6
20260905221812 32 183 0.0 0.0 0.00 0.00 0.00 69 1013.7
20260905221309 32 183 0.0 0.0 0.00 0.00 0.00 69 1013.8
20260905220804 31 183 0.0 0.0 0.00 0.00 0.00 71 1013.7
20260905220300 31 181 0.0 0.0 0.00 0.00 0.00 71 1014.0
20260905215759 32 181 0.0 0.0 0.00 0.00 0.00 70 1013.7
20260905215255 33 181 0.0 0.0 0.00 0.00 0.00 68 1013.7
20260905214750 34 182 0.0 0.0 0.00 0.00 0.00 65 1013.8
20260905214246 36 184 0.0 0.0 0.00 0.00 0.00 59 1013.8
20260905213741 36 184 0.0 0.0 0.00 0.00 0.00 55 1013.8
20260905213237 34 183 0.0 0.0 0.00 0.00 0.00 57 1013.8
20260905212732 33 173 0.0 0.0 0.00 0.00 0.00 61 1013.9
20260905212232 33 173 0.0 0.0 0.00 0.00 0.00 61 1013.8
20260905211731 33 176 0.0 0.0 0.00 0.00 0.00 63 1013.9
20260905211226 33 171 0.0 0.0 0.00 0.00 0.00 59 1014.0
20260905210723 33 171 0.0 0.0 0.00 0.00 0.00 58 1013.9
20260905210223 33 173 0.0 0.0 0.00 0.00 0.00 58 1014.1
20260905205722 34 172 0.0 0.0 0.00 0.00 0.00 56 1014.1
20260905205217 35 167 0.0 0.0 0.00 0.00 0.00 58 1013.9
20260905204716 36 175 0.0 0.0 0.00 0.00 0.00 57 1014.1
20260905204212 38 191 0.0 0.0 0.00 0.00 0.00 49 1014.3
20260905203712 38 161 0.0 0.0 0.00 0.00 0.00 49 1014.5
20260905203208 38 186 0.0 0.0 0.00 0.00 0.00 48 1014.5
20260905202703 40 180 0.0 0.0 0.00 0.00 0.00 44 1014.9
20260905202158 39 193 0.0 0.0 0.00 0.00 0.00 45 1014.5
20260905201654 40 92 0.0 0.0 0.00 0.00 0.00 45 1014.8
20260905201153 40 169 1.6 3.2 0.00 0.00 0.00 45 1014.7
20260905200648 40 243 0.0 1.6 0.00 0.00 0.00 45 1014.7
20260905200144 40 124 0.0 0.0 0.00 0.00 0.00 44 1014.9
20260905195642 39 183 0.0 0.0 0.00 0.00 0.00 46 1014.8
20260905195137 39 196 0.0 0.0 0.00 0.00 0.00 45 1014.9
20260905194632 40 199 0.0 0.0 0.00 0.00 0.00 47 1015.1
20260905194131 38 193 0.0 0.0 0.00 0.00 0.00 46 1015.0
20260905193626 36 187 0.0 0.0 0.00 0.00 0.00 59 1015.3
20260905193121 36 178 0.0 0.0 0.00 0.00 0.00 60 1015.0
20260905192617 35 192 0.0 0.0 0.00 0.00 0.00 58 1015.2
20260905192113 34 193 0.0 0.0 0.00 0.00 0.00 64 1015.2
20260905191612 33 193 0.0 0.0 0.00 0.00 0.00 69 1015.2
20260905191111 33 193 0.0 0.0 0.00 0.00 0.00 69 1015.2
20260905190609 33 193 0.0 0.0 0.00 0.00 0.00 66 1015.5
20260905190108 32 193 0.0 0.0 0.00 0.00 0.00 64 1015.4
20260905185607 32 177 0.0 0.0 0.00 0.00 0.00 64 1015.7
20260905185102 32 185 0.0 0.0 0.00 0.00 0.00 62 1015.6
20260905184557 32 189 0.0 0.0 0.00 0.00 0.00 64 1015.5
20260905184056 32 182 0.0 0.0 0.00 0.00 0.00 61 1015.9
20260905183555 33 184 0.0 0.0 0.00 0.00 0.00 59 1015.7
20260905183051 35 172 0.0 0.0 0.00 0.00 0.00 52 1015.7
20260905182551 36 175 0.0 0.0 0.00 0.00 0.00 50 1015.8
20260905182051 37 277 1.6 3.2 0.00 0.00 0.00 43 1015.8
20260905181550 39 190 0.0 0.0 0.00 0.00 0.00 47 1015.6
20260905181044 40 200 0.0 0.0 0.00 0.00 0.00 39 1015.7
20260905180539 40 185 0.0 0.0 0.00 0.00 0.00 43 1015.6
20260905180035 40 180 0.0 0.0 0.00 0.00 0.00 43 1015.8
20260905175533 40 184 0.0 0.0 0.00 0.00 0.00 41 1015.5
20260905175030 40 194 0.0 0.0 0.00 0.00 0.00 43 1015.9
20260905174525 39 195 0.0 0.0 0.00 0.00 0.00 42 1015.9
20260905174020 39 175 0.0 0.0 0.00 0.00 0.00 44 1015.9
20260905173517 39 187 0.0 0.0 0.00 0.00 0.00 46 1015.9
20260905173012 38 260 0.0 0.0 0.00 0.00 0.00 46 1016.2
20260905172510 39 169 0.0 0.0 0.00 0.00 0.00 46 1016.4
20260905172006 38 198 0.0 0.0 0.00 0.00 0.00 50 1016.6
20260905171502 38 198 0.0 0.0 0.00 0.00 0.00 48 1016.7
20260905170958 38 198 0.0 0.0 0.00 0.00 0.00 44 1016.2
20260905170454 38 192 0.0 0.0 0.00 0.00 0.00 47 1016.5
20260905165948 37 190 0.0 0.0 0.00 0.00 0.00 48 1016.4
20260905165443 37 190 0.0 0.0 0.00 0.00 0.00 47 1016.6
20260905164938 37 205 0.0 0.0 0.00 0.00 0.00 49 1016.7
20260905164432 38 202 0.0 0.0 0.00 0.00 0.00 49 1016.7
20260905163927 38 174 0.0 0.0 0.00 0.00 0.00 49 1016.8
20260905163424 37 177 0.0 0.0 0.00 0.00 0.00 48 1016.7
20260905162919 37 194 0.0 0.0 0.00 0.00 0.00 49 1016.8
20260905162414 37 191 0.0 0.0 0.00 0.00 0.00 48 1016.8
20260905161909 36 160 0.0 0.0 0.00 0.00 0.00 55 1016.8
20260905161408 35 196 0.0 1.6 0.00 0.00 0.00 55 1016.9
20260905160906 35 168 0.0 0.0 0.00 0.00 0.00 55 1016.9
20260905160400 36 182 0.0 1.6 0.00 0.00 0.00 55 1017.0
20260905155855 35 185 0.0 0.0 0.00 0.00 0.00 63 1017.0
20260905155349 35 96 1.6 3.2 0.00 0.00 0.00 57 1016.9
20260905154848 35 201 0.0 0.0 0.00 0.00 0.00 59 1017.0
20260905154344 35 190 0.0 0.0 0.00 0.00 0.00 57 1016.8
20260905153839 35 189 0.0 0.0 0.00 0.00 0.00 58 1017.0
20260905153336 35 186 0.0 0.0 0.00 0.00 0.00 65 1016.8
20260905152835 35 195 0.0 0.0 0.00 0.00 0.00 63 1016.9
20260905152334 33 176 0.0 0.0 0.00 0.00 0.00 64 1016.9
20260905151829 33 184 0.0 0.0 0.00 0.00 0.00 66 1017.1
20260905151325 33 193 0.0 0.0 0.00 0.00 0.00 65 1016.9
20260905150825 33 193 0.0 0.0 0.00 0.00 0.00 68 1016.9